This is the latest recevied weather packets stored in our database for station/object N7NIP. If no packets are shown the sender has not sent any weather packets the latest 10 day(s).
| Time | Temp. | Humidity | Pressure | Rain* | Wind** | Luminosity | Snow |
|---|---|---|---|---|---|---|---|
| 1777685097 | 19.44° C | 59% | 1028.5 hPa | 0 mm | - | 123 W/m² | - |
| 1777684795 | 20° C | 58% | 1028.6 hPa | 0 mm | - | 176 W/m² | - |
| 1777684491 | 20° C | 58% | 1028.7 hPa | 0 mm | - | 321 W/m² | - |
| 1777684188 | 20° C | 58% | 1028.6 hPa | 0 mm | - | 328 W/m² | - |
| 1777683885 | 20.56° C | 57% | 1028.4 hPa | 0 mm | - | 328 W/m² | - |
| 1777683581 | 20.56° C | 56% | 1028.6 hPa | 0 mm | - | 328 W/m² | - |
| 1777683279 | 20.56° C | 58% | 1028.4 hPa | 0 mm | - | 354 W/m² | - |
| 1777682977 | 21.11° C | 55% | 1028.5 hPa | 0 mm | - | 377 W/m² | - |
| 1777682672 | 21.67° C | 57% | 1028.3 hPa | 0 mm | - | 380 W/m² | - |
| 1777682370 | 21.11° C | 58% | 1028.5 hPa | 0 mm | - | 431 W/m² | - |
| 1777682067 | 20.56° C | 59% | 1028.3 hPa | 0 mm | - | 387 W/m² | - |
| 1777681763 | 20.56° C | 59% | 1028.5 hPa | 0 mm | - | 363 W/m² | - |
| 1777681460 | 21.11° C | 56% | 1028.4 hPa | 0 mm | - | 368 W/m² | - |
| 1777681158 | 21.67° C | 56% | 1028.4 hPa | 0 mm | - | 434 W/m² | - |
| 1777680855 | 21.67° C | 55% | 1028.2 hPa | 0 mm | - | 376 W/m² | - |
| 1777680553 | 21.67° C | 59% | 1028.4 hPa | 0 mm | - | 460 W/m² | - |
| 1777680251 | 21.67° C | 54% | 1028.2 hPa | 0 mm | - | 266 W/m² | - |
| 1777679947 | 22.22° C | 55% | 1028.3 hPa | 0 mm | - | 342 W/m² | - |
| 1777679643 | 21.67° C | 55% | 1028.2 hPa | 0 mm | - | 434 W/m² | - |
| 1777679338 | 22.22° C | 52% | 1028.3 hPa | 0 mm | - | 504 W/m² | - |
| 1777679035 | 22.22° C | 51% | 1028.6 hPa | 0 mm | - | 549 W/m² | - |
| 1777678733 | 21.67° C | 54% | 1028.3 hPa | 0 mm | - | 486 W/m² | - |
| 1777678431 | 21.67° C | 54% | 1028.4 hPa | 0 mm | - | 550 W/m² | - |
| 1777678126 | 21.67° C | 52% | 1028.4 hPa | 0 mm | - | 682 W/m² | - |
| 1777677824 | 21.67° C | 53% | 1028.5 hPa | 0 mm | - | 520 W/m² | - |
* Rain latest hour (hover to see other rain measurements)
** Current wind speed in m/s (hover to see current wind gust speed)